Huvudsida
METAR-TAF:

METAR-TAF

Flygplatser :

Groote Eylandt Airport

Groote Eylandt, Australien

latitud: 13-58-30S, longitud: 136-27-36E, höjd: 16 m

Aktuellt väderrapport

Denna rapport gjordes för 1 timme och 17 minuter sedan, klockan 15:00 UTC
Vind 5 kt från nordost
Temperatur 27°C
Fuktighet 84%
Tryck 1010 hPa
Sikt 10 km eller mer

METAR: YGTE 141500Z AUTO 05005KT 9999 // NCD 27/24 Q1010

Tid: 01:47 (16:17 UTC)


TAF: saknas

Aktuella väderrapporter och prognoser från 4000 flygplatser (METAR- och TAF-rapporter).

De tillgängliga stationerna syns som gula och röda prickar på kartan.

För musen över prickarna för att se namnen på stationerna.

Klicka sedan för att få väderrapporter och prognoser.

För att ändra kartan: Klicka på de gröna knapparna med ett svart kors på för att zooma in; den gröna knappen med ett streck på för att zooma ut; eller på de gröna pilarna för angränsande kartor.


METAR-TAF: